Theta_e
348 347 345 341 314 312 308 312 319 317 318 323 326 322 322 326 319 305 336 343 346 345 349 351 354 352 354 354 349 349 353 353 356 358 360 360 361 361 361 361 360 361 360 360 360 360 360 360 360
341 344 342 330 308 303 307 318 316 321 325 327 328 327 325 321 332 332 334 344 346 346 347 350 357 356 355 356 350 347 348 353 353 355 360 360 361 361 361 359 360 361 360 361 360 360 359 359 360
339 342 331 317 308 304 308 318 321 325 326 327 326 330 328 325 333 334 341 346 347 345 347 350 356 356 355 356 349 353 356 357 359 357 360 361 361 361 357 357 355 357 359 359 359 358 358 357 356
341 339 335 314 309 315 316 320 325 322 326 329 327 324 332 338 335 341 345 346 345 346 348 354 356 356 356 356 357 358 358 359 360 360 361 361 361 360 360 359 360 358 357 355 355 356 355 354 353
340 332 316 312 314 319 321 324 323 322 324 325 328 324 327 337 342 343 343 346 345 345 350 352 357 358 358 358 357 359 359 360 360 360 361 361 360 360 360 360 359 357 356 356 355 353 352 352 354
328 328 313 309 314 321 324 329 327 325 327 327 326 325 328 339 338 341 345 346 349 349 352 353 356 359 359 359 359 360 360 360 363 360 361 361 360 361 360 359 359 358 355 354 353 351 352 354 356
326 319 313 315 315 319 324 329 325 323 324 325 330 323 332 335 341 343 345 348 351 351 351 351 353 357 359 360 361 361 359 359 360 361 361 362 361 360 360 360 359 358 357 355 354 355 356 358 359
333 324 316 318 315 318 325 328 328 325 324 333 333 323 325 335 343 345 347 347 347 349 350 350 351 351 353 356 360 361 361 360 362 361 361 361 361 361 361 360 361 359 359 357 357 357 357 358 359
335 317 315 316 318 322 327 324 330 333 328 331 332 331 335 341 342 343 343 344 344 347 345 347 350 350 351 353 357 360 361 360 361 360 362 355 351 353 354 360 361 362 361 360 360 361 362 363 360
325 318 319 324 325 326 330 324 326 326 327 326 330 337 340 340 338 337 337 337 341 341 343 345 348 349 351 358 353 354 356 354 354 352 350 349 350 354 355 352 350 352 356 356 360 361 362 359 355
326 320 326 327 330 328 326 323 329 326 323 325 326 332 337 337 336 336 337 337 338 339 342 344 345 347 348 350 352 351 349 348 344 345 345 347 347 346 347 344 346 346 352 348 349 351 352 354 353
321 326 326 327 330 328 328 331 324 327 327 331 334 336 336 335 333 334 335 335 337 338 341 344 345 345 345 349 349 348 348 345 337 339 346 343 341 341 343 346 346 348 349 348 349 350 351 349 347
322 324 327 329 329 328 331 329 326 328 331 334 335 335 333 334 332 334 336 337 338 337 341 343 343 344 344 347 347 348 348 348 346 347 346 337 339 341 344 347 349 349 350 348 349 349 349 346 344
325 325 325 327 326 328 326 328 328 328 333 331 332 331 332 332 332 335 337 337 339 340 340 343 342 343 343 345 346 347 348 346 347 347 346 341 344 348 347 347 349 351 352 352 349 351 348 344 346
326 321 325 326 326 327 329 322 322 328 331 328 329 329 331 332 335 335 337 338 340 340 340 342 342 341 343 344 346 345 348 347 341 342 344 348 347 347 348 346 348 351 350 353 354 352 349 346 348
320 322 314 322 325 328 326 314 324 329 329 327 328 329 331 332 335 336 338 339 340 339 336 342 346 341 344 343 344 345 346 345 339 339 346 348 348 348 347 345 349 351 352 353 353 352 347 345 346
313 309 313 317 326 325 322 316 324 329 327 327 328 328 330 332 335 335 338 339 338 338 338 340 342 342 343 343 342 343 345 344 343 342 341 349 347 348 343 348 350 353 354 353 352 351 348 345 345
305 305 311 310 319 320 317 319 322 326 326 327 327 327 329 331 333 336 338 340 340 341 341 342 340 340 341 341 342 341 344 344 341 343 340 348 344 345 349 348 349 351 352 354 354 349 346 344 343
314 310 311 314 318 318 315 319 320 324 324 322 325 326 328 329 334 338 338 340 341 341 340 339 337 339 340 339 340 339 340 342 341 344 348 347 342 346 348 350 346 348 350 353 356 351 343 340 342
310 308 310 314 317 315 315 314 322 323 323 324 323 324 327 328 331 335 337 338 339 338 339 338 337 339 341 339 340 341 343 344 342 346 349 345 340 346 352 350 341 345 350 353 353 353 344 342 343
303 299 310 313 316 317 316 313 317 321 325 329 327 327 328 328 330 333 335 337 338 338 338 337 337 339 342 342 344 343 344 344 344 346 347 348 345 345 353 347 344 347 349 352 352 349 345 341 342
296 317 315 315 312 305 317 303 313 317 320 323 325 325 325 327 331 333 335 336 337 338 340 338 339 339 343 344 344 342 341 339 342 344 346 347 351 351 349 351 348 351 351 354 355 349 348 345 340
310 318 314 312 306 307 309 303 309 316 314 319 322 325 326 328 330 331 335 337 338 340 340 340 340 340 344 343 343 340 339 339 341 343 345 345 349 349 348 353 351 351 351 354 354 343 342 341 339
318 313 310 307 304 297 304 304 303 310 314 318 322 326 327 327 330 332 336 338 337 340 341 341 340 340 342 344 342 340 340 339 341 341 343 344 345 348 350 351 353 352 349 352 354 347 346 346 343
311 305 298 293 293 294 302 303 304 313 318 321 322 327 329 328 329 331 332 335 337 338 340 341 340 339 341 343 343 341 340 341 342 342 341 342 343 345 348 350 351 352 351 352 354 353 350 346 348
308 302 296 292 292 294 305 300 307 317 319 321 325 328 330 330 330 331 333 335 338 339 341 341 339 338 340 342 344 344 344 342 343 344 343 345 343 344 348 348 350 352 353 353 353 352 352 353 352
306 299 304 296 293 291 298 307 316 321 322 324 321 327 328 330 331 331 334 336 338 340 341 341 340 340 341 342 343 344 344 344 344 345 345 344 345 346 347 347 349 350 352 353 353 351 351 353 353
305 305 297 297 291 287 294 302 302 312 318 320 321 325 327 330 332 333 334 336 339 341 342 342 342 340 341 343 345 344 345 346 347 347 346 347 347 348 352 351 348 350 350 353 353 351 351 352 353
299 294 294 299 298 288 294 298 314 314 319 320 322 325 326 327 331 333 335 338 339 341 343 343 343 341 341 343 344 345 345 347 348 348 348 349 350 349 349 352 348 350 350 351 352 351 350 350 351
297 293 292 292 290 291 293 293 314 319 320 322 321 324 326 327 330 333 335 337 338 340 342 343 344 343 343 344 344 346 347 348 348 347 349 348 348 350 349 350 350 349 352 351 350 349 351 349 347
Wind_Speed
2 3 1 1 4 6 3 3 1 6 5 2 6 5 7 4 1 4 1 3 6 4 3 5 7 7 9 11 17 15 13 13 11 11 13 13 14 14 13 14 12 13 12 12 13 15 14 14 14
1 3 0 1 6 5 2 3 4 3 5 16 10 6 5 4 3 7 3 4 6 5 4 4 8 9 9 10 15 13 9 10 10 10 12 13 14 13 14 13 13 13 12 13 12 13 14 13 12
2 3 1 3 4 4 2 3 10 7 5 4 6 6 4 3 6 5 4 7 6 5 5 4 9 9 8 9 15 12 10 8 12 9 11 13 13 12 14 14 13 12 12 12 11 12 11 9 8
1 2 1 5 6 2 5 4 7 6 6 7 11 7 5 5 4 5 8 8 7 5 5 6 8 6 6 7 7 10 11 10 11 11 12 12 13 12 13 12 12 11 11 10 10 9 7 7 7
2 1 4 4 3 2 4 6 3 3 5 6 3 5 5 3 10 11 8 7 7 5 5 5 7 7 5 8 6 10 10 10 10 10 12 12 11 10 10 11 11 10 10 10 9 7 5 7 9
2 2 4 4 4 3 4 3 6 3 6 9 9 7 3 8 11 7 6 6 5 5 4 4 5 7 6 8 8 9 9 10 9 11 11 10 9 10 10 10 10 11 9 8 6 4 5 7 9
3 2 2 8 5 3 2 5 5 7 9 7 6 7 5 4 6 7 6 6 5 5 5 3 3 4 8 7 9 7 9 10 10 10 10 9 9 9 9 9 9 9 8 6 4 4 6 7 8
2 2 3 3 6 3 5 3 4 10 5 5 10 6 8 6 9 9 7 6 5 4 3 3 3 3 3 4 8 8 8 9 9 10 10 10 9 9 9 7 7 7 7 5 4 5 4 4 5
2 4 3 2 4 3 5 5 4 6 10 1 3 6 10 15 12 10 8 5 3 3 2 3 3 4 4 3 4 5 6 7 7 8 10 7 3 4 5 6 8 7 6 5 5 5 6 5 4
3 4 2 0 1 2 5 5 5 7 6 5 10 12 15 14 12 11 11 10 8 3 2 1 2 3 3 3 5 4 4 4 4 4 5 3 4 3 4 7 10 8 8 8 7 7 7 5 2
1 4 4 2 4 4 3 5 3 13 2 7 16 14 16 13 10 9 8 9 8 3 2 3 2 2 3 3 3 2 2 2 2 4 3 3 3 4 3 2 3 3 6 3 3 3 2 3 2
5 7 3 2 3 4 4 6 8 2 3 10 14 18 15 14 11 10 8 7 6 5 5 5 4 2 2 2 3 3 2 2 2 2 3 3 2 3 3 2 3 3 2 4 2 2 3 2 3
3 7 5 7 4 0 5 2 2 5 10 12 15 13 14 13 10 8 7 7 6 6 6 5 5 4 2 3 2 2 1 1 1 1 3 3 2 1 2 3 3 2 2 1 2 2 2 4 4
6 4 6 3 4 2 4 2 4 7 10 13 17 14 11 13 13 8 8 7 8 6 6 6 6 5 5 4 3 2 0 1 1 1 1 2 2 2 2 3 3 3 3 2 1 1 3 4 4
5 5 4 3 4 3 2 2 9 13 15 16 15 12 11 10 11 12 10 9 10 5 6 7 6 6 5 5 4 3 2 2 2 1 1 1 0 3 3 2 4 3 3 3 0 2 3 4 4
4 3 2 2 4 2 3 2 3 17 19 17 15 12 11 9 11 8 9 8 7 6 8 6 7 7 5 5 4 3 3 2 1 1 1 0 3 4 3 3 3 3 3 2 3 2 4 4 3
6 3 5 6 5 8 3 3 2 14 17 16 14 12 10 7 9 8 10 9 8 7 6 6 6 6 7 5 4 3 4 3 1 2 0 1 3 1 3 2 3 3 3 3 3 3 2 2 3
4 4 3 6 6 7 16 10 9 9 13 14 13 12 10 11 12 10 10 8 6 6 6 5 4 5 6 4 4 3 3 2 2 2 1 0 1 2 2 2 4 3 2 4 4 5 7 3 3
6 5 7 7 3 3 9 6 12 6 8 6 13 13 13 14 7 8 8 7 7 6 6 6 6 5 5 3 3 2 3 2 1 2 1 1 1 2 2 2 3 2 4 3 3 3 4 3 2
5 6 4 4 8 5 1 7 9 10 11 11 12 14 16 9 8 8 9 8 8 8 7 6 7 6 4 3 3 3 2 1 2 2 2 3 1 1 2 2 1 3 3 5 4 1 2 1 1
1 3 4 5 9 6 5 5 4 5 6 2 4 9 12 16 14 11 10 10 8 8 8 7 7 6 5 5 4 3 3 3 2 0 1 2 3 2 1 3 1 2 3 3 2 1 2 2 3
3 8 9 12 15 3 5 3 4 7 12 6 5 11 10 12 12 12 13 11 11 9 6 6 7 6 5 7 4 6 4 3 3 3 2 2 3 3 2 1 2 2 2 3 2 0 1 2 2
2 11 3 4 3 2 4 1 3 12 10 16 11 14 14 16 17 16 16 15 10 8 8 6 6 6 4 5 6 5 3 2 2 1 3 2 3 3 3 3 2 2 2 2 2 1 2 1 2
15 9 4 4 3 1 1 4 4 9 17 17 12 13 14 14 14 13 10 8 7 5 6 6 7 6 6 5 6 8 7 5 4 3 3 3 2 2 3 3 3 1 1 1 1 2 1 2 2
6 6 1 4 4 4 4 3 9 11 15 24 21 15 14 12 12 12 11 10 9 10 9 8 8 7 6 6 5 7 7 6 5 5 3 4 2 2 4 4 4 3 2 2 1 1 2 0 1
8 9 5 4 3 4 2 5 6 7 7 11 17 14 14 15 12 13 14 12 12 12 10 11 10 8 8 6 7 5 6 4 4 4 3 3 3 3 3 4 4 4 3 3 2 1 1 1 2
5 4 3 7 1 1 3 6 5 3 1 6 14 19 20 17 18 19 16 15 14 12 12 13 11 9 8 9 6 6 5 5 6 6 3 3 4 4 5 4 5 5 4 3 3 2 3 2 1
9 8 4 5 3 5 5 4 2 5 3 4 14 15 11 12 13 16 17 16 14 13 13 11 10 12 10 9 8 6 6 6 4 4 6 5 4 5 3 5 5 5 4 4 4 2 2 2 2
4 1 6 6 5 4 0 5 4 6 1 7 7 6 8 11 12 13 13 12 12 10 11 12 11 10 9 9 8 7 6 6 5 5 5 5 4 5 5 5 5 6 6 5 4 4 4 4 3
4 6 7 7 6 2 1 4 6 5 6 3 4 4 2 6 12 11 12 12 12 12 11 11 10 11 10 9 8 9 6 6 5 5 6 4 5 4 5 5 5 6 6 5 6 6 5 5 5
Wind_Direction
207 134 208 47 62 65 47 359 47 111 124 155 124 117 116 56 44 159 16 118 105 99 88 135 148 136 101 90 78 69 82 89 78 96 103 99 103 97 94 92 89 92 93 91 85 80 78 80 72
156 180 317 48 77 66 343 345 69 29 111 105 94 107 59 73 65 120 103 118 101 114 93 125 138 113 102 93 80 76 60 95 97 66 99 102 97 93 91 88 79 76 89 86 82 79 76 71 68
243 213 71 84 104 110 127 58 116 118 129 95 108 55 75 79 106 139 126 112 100 100 109 136 112 109 112 111 134 145 149 111 113 144 99 92 89 87 83 80 79 79 74 73 74 73 67 62 63
60 29 43 72 83 72 120 157 114 100 67 65 116 75 84 108 156 142 117 108 108 110 107 113 109 119 116 104 120 122 127 130 117 111 102 91 88 81 73 76 68 74 79 82 75 68 59 47 42
50 47 62 76 70 60 89 130 141 73 87 70 64 89 75 52 108 115 117 115 116 109 107 110 132 126 126 110 103 93 105 108 101 105 100 90 85 84 80 76 78 79 82 77 75 66 48 39 33
44 75 71 108 93 66 77 115 94 77 83 104 87 96 74 123 119 116 109 109 108 115 98 94 122 130 136 115 106 116 107 107 101 100 89 87 91 86 86 86 79 76 81 82 79 72 48 40 44
102 77 123 114 118 106 99 140 148 107 105 65 116 103 101 128 118 108 105 96 93 98 97 101 104 152 117 116 115 108 101 101 92 97 98 87 86 87 85 79 75 77 76 72 64 48 40 38 44
104 103 96 50 153 124 134 111 148 97 71 102 144 149 157 167 129 111 86 76 81 78 113 95 57 90 95 110 126 122 131 108 98 95 91 80 65 77 78 59 61 63 61 48 24 40 37 32 43
139 61 96 60 129 93 139 119 235 89 124 60 122 119 128 136 126 114 112 121 76 111 91 76 79 68 97 94 135 131 120 103 81 63 74 60 53 48 39 46 38 36 27 13 6 1 2 357 17
75 75 65 56 65 341 141 136 127 115 116 78 82 87 118 135 138 144 159 169 180 169 145 113 116 96 102 80 70 62 57 55 52 54 57 42 31 6 46 36 28 21 15 5 357 343 335 344 354
58 103 143 84 72 343 110 123 94 130 161 185 148 143 143 147 150 156 164 176 186 177 158 186 167 111 55 93 86 64 69 68 65 76 70 31 23 13 26 25 348 333 355 347 334 331 351 332 317
99 91 103 158 49 7 49 320 124 147 189 147 150 151 147 155 163 164 175 173 170 183 188 190 177 156 71 69 88 99 104 94 74 61 50 41 34 21 4 357 320 311 3 324 330 349 322 317 326
73 157 173 127 136 288 322 332 174 52 130 134 137 154 160 158 163 167 174 177 166 183 188 189 163 171 131 119 96 96 110 53 61 48 66 75 73 49 323 317 316 336 318 327 7 26 1 45 46
156 177 165 177 151 55 3 105 100 262 142 145 150 165 180 170 165 156 169 180 179 177 185 176 176 179 157 157 160 190 69 29 55 100 70 140 179 110 27 360 350 347 336 339 327 39 50 71 78
60 101 108 98 144 68 53 206 199 186 167 159 165 171 180 187 169 177 178 185 179 184 178 182 178 184 172 177 171 183 175 140 190 196 236 253 185 70 42 357 6 330 338 326 324 7 67 80 67
83 109 168 88 134 69 347 253 205 170 167 172 171 174 183 188 191 168 180 182 182 167 182 183 190 181 175 183 180 185 133 159 194 158 205 311 95 46 32 358 356 314 354 18 50 80 109 94 72
11 98 83 82 21 11 304 321 173 171 172 178 177 179 186 173 194 169 178 178 174 178 168 181 198 189 169 186 160 173 146 157 167 122 251 90 98 71 53 355 353 340 19 37 38 39 95 112 106
187 120 80 95 17 3 313 255 159 193 174 181 179 178 188 197 198 174 167 165 157 163 166 178 173 181 164 134 111 117 120 159 145 131 243 346 67 123 40 16 22 6 25 49 58 54 51 75 84
136 121 112 110 21 54 326 321 179 152 222 212 191 185 193 202 182 171 161 157 146 157 164 175 159 175 136 122 120 120 165 180 166 154 170 233 160 97 86 19 8 7 46 55 90 89 80 59 26
172 161 155 103 150 157 200 281 173 174 239 212 186 193 194 177 168 164 172 164 169 169 183 178 180 173 172 133 139 144 164 141 127 149 192 219 163 155 189 122 4 39 70 48 62 154 119 99 351
191 263 153 158 176 231 186 286 124 228 260 192 178 194 186 181 172 174 182 182 168 174 180 184 181 188 171 146 112 78 64 56 62 10 248 214 193 225 219 96 117 77 62 61 70 125 146 147 48
109 357 217 155 157 230 207 197 214 206 210 219 181 196 181 180 182 173 183 188 186 185 164 172 173 177 192 153 140 147 155 160 205 183 195 232 205 228 166 89 288 62 79 70 56 59 108 132 132
78 70 3 81 87 106 193 104 231 168 209 205 216 204 182 184 178 183 186 195 190 170 170 174 170 174 180 173 173 141 154 156 128 119 173 212 212 211 178 195 238 352 56 57 106 52 122 45 130
149 95 13 28 106 333 214 178 219 193 208 197 212 203 190 181 186 186 181 172 168 167 159 161 176 181 175 193 163 153 163 162 145 162 190 230 272 273 233 205 200 247 320 48 304 116 66 75 70
92 84 219 340 1 235 289 169 256 206 187 189 198 184 179 180 179 169 164 172 171 175 178 173 175 188 185 180 179 173 173 172 187 189 198 193 218 233 233 210 207 195 222 171 247 253 285 302 329
179 139 170 141 313 307 284 238 261 189 180 197 202 175 171 170 177 175 178 178 184 183 182 184 182 187 175 184 195 196 186 174 187 191 213 226 207 216 216 213 230 222 218 192 180 218 252 283 285
200 131 201 102 142 7 241 277 313 69 71 226 190 176 181 181 181 182 181 182 179 185 190 192 183 194 182 187 186 192 188 195 194 198 195 216 239 240 218 219 226 227 216 218 193 218 230 205 256
143 138 93 7 9 277 272 267 135 335 176 119 170 187 187 192 190 186 183 183 185 190 186 196 193 193 193 187 187 196 192 196 205 194 213 210 236 237 229 225 226 219 219 214 205 215 247 238 248
126 189 52 107 166 211 286 292 343 267 220 141 142 168 175 188 193 193 187 188 181 179 194 195 192 193 186 193 188 189 194 191 196 208 224 229 208 214 230 232 220 214 208 203 203 218 229 238 231
163 157 157 127 214 231 141 306 329 3 25 24 163 205 222 196 192 192 183 182 186 188 186 195 195 196 198 191 188 197 181 182 193 217 224 217 235 228 222 219 213 203 210 202 207 223 216 222 225